Tracking 19717 objects as of 24-Jun-2019
HD Live streaming from Space Station
objects crossing your sky now

CZ-4 DEB

Track CZ-4 DEB now!
10-day predictions


NORAD ID: 26449
Int'l Code: 1999-057KW
Perigee: 690.8 km
Apogee: 815.3 km
Inclination: 98.7 °
Period: 99.7 minutes
Semi major axis: 7124 km
RCS: 0.044 m2 (small)
Launch date: October 14, 1999
Source: People's Republic of China (PRC)
Launch site: Taiyaun Space Center, China (TSC)

Note: This is SATELLITE DEBRIS
aabbcc
Your satellite tracking list
Your tracking list is empty




NASA's NSSDC Master Catalog

Two Line Element Set (TLE):
1 26449U 99057KW  19174.94432656  .00000077  00000-0  35389-4 0  9992
2 26449  98.6524 156.9648 0087372   5.1671  54.8940 14.43807948  9992
Source of the keplerian elements: AFSPC